Tracking 30995 objects as of 7-Jul-2025
HD Live streaming from Space Station
objects crossing your sky now

COSMOS 2251 DEB

Track COSMOS 2251 DEB now!
10-day predictions


NORAD ID: 34965
Int'l Code: 1993-036AEU
Perigee: 719.5 km
Apogee: 757.7 km
Inclination: 74.1 °
Period: 99.4 minutes
Semi major axis: 7109 km
RCS: 0.0084 m2 (small)
Launch date: June 16, 1993
Source: Commonwealth of Independent States (former USSR) (CIS)
Launch site: PLESETSK MISSILE AND SPACE COMPLEX (PKMTR)

Note: This is SATELLITE DEBRIS
Your satellite tracking list
Your tracking list is empty




NASA's NSSDC Master Catalog

Two Line Element Set (TLE):
1 34965U 93036AEU 25186.34840182  .00000681  00000-0  18909-3 0  9995
2 34965  74.0521  68.5990 0026860 235.3840 124.4787 14.48232756847916
Source of the keplerian elements: AFSPC